Theta_e
326 333 336 336 336 334 331 331 331 331 334 336 338 338 332 336 337 337 338 336 335 334 333 332 330 331 331 333 334 333 333 333 333 333 330 328 327 326 325 325 325 325 325
319 317 326 335 335 334 333 332 332 331 334 332 331 337 336 337 337 337 338 337 335 334 335 335 332 333 334 335 334 334 332 331 330 329 328 322 323 324 325 324 324 324 326
317 317 316 327 333 336 337 337 336 335 335 332 334 335 335 335 336 336 337 337 336 335 335 335 334 334 335 334 334 333 331 331 330 328 328 325 321 320 323 322 321 321 323
315 314 315 315 325 332 335 337 336 336 336 335 335 335 334 334 334 332 335 336 335 335 335 334 334 333 329 331 332 332 331 330 329 329 329 327 326 324 322 320 320 318 319
314 314 314 316 318 317 325 331 334 334 334 335 335 334 335 335 336 334 335 334 333 333 333 332 332 330 331 332 329 329 328 328 325 323 322 322 323 323 321 317 316 317 317
312 312 314 315 316 317 317 318 320 330 334 335 334 335 334 334 334 333 333 329 329 329 328 328 329 326 322 322 318 316 314 315 316 316 317 318 319 317 317 314 315 316 313
311 311 311 312 314 316 316 316 317 321 331 334 334 334 334 334 333 332 330 329 327 323 322 324 320 314 312 312 312 311 311 311 312 312 314 316 317 318 317 318 317 316 312
307 309 308 310 312 314 315 315 316 318 326 331 332 332 333 332 331 330 329 329 328 327 327 323 317 312 312 311 310 310 310 309 309 310 312 314 316 315 314 315 316 315 312
305 308 309 310 309 310 313 313 314 317 324 328 328 327 327 327 327 327 328 327 327 325 323 321 321 317 312 310 308 308 307 307 307 308 310 313 313 312 311 312 313 314 314
304 304 304 308 310 310 311 313 313 316 320 321 321 321 322 323 324 325 325 326 324 322 318 315 313 310 309 308 307 306 305 305 306 307 307 308 308 309 308 310 311 310 311
304 304 303 307 311 311 313 313 314 316 317 317 317 317 318 320 321 321 320 319 318 315 313 311 310 308 307 306 306 305 305 304 305 305 306 306 306 306 307 307 308 308 309
306 305 305 307 309 311 312 313 314 314 315 315 315 314 315 315 315 313 313 312 311 309 308 307 306 305 304 304 304 304 303 304 303 303 304 305 304 304 304 304 304 305 306
305 305 305 305 307 309 311 312 313 314 314 314 313 312 312 312 312 311 310 309 307 307 307 306 306 304 303 303 302 302 302 301 302 302 303 303 302 302 302 302 302 302 302
304 303 304 304 306 308 310 311 312 312 312 312 313 312 312 311 311 310 310 310 307 305 304 304 303 303 303 302 301 300 300 300 300 300 300 300 300 300 300 299 299 300 300
305 304 303 303 306 307 309 310 311 312 312 311 311 311 310 309 308 307 306 306 305 305 304 305 303 302 301 300 299 298 298 298 298 298 298 298 298 298 298 298 298 298 298
305 304 303 302 304 306 308 309 310 311 311 311 311 310 308 307 307 305 304 305 305 303 303 302 302 300 299 298 298 297 297 297 297 297 297 297 296 296 295 295 295 295 297
305 304 303 302 304 305 305 306 307 309 310 310 310 309 307 306 304 304 304 304 303 302 301 301 299 299 298 298 297 297 296 297 296 296 295 295 294 293 293 293 292 293 295
304 303 303 304 305 305 305 305 306 306 308 309 309 308 306 305 304 304 303 302 301 301 300 299 299 298 297 297 296 297 296 296 295 295 294 293 290 289 289 288 288 286 288
302 303 304 304 304 304 305 304 305 305 306 307 308 308 306 304 303 302 302 301 301 300 300 299 298 297 296 295 295 295 295 294 294 293 292 289 287 286 287 287 286 285 286
303 303 304 304 304 305 304 303 304 304 304 306 308 307 306 305 303 302 301 301 300 300 298 297 296 296 296 295 294 294 293 293 293 292 291 288 287 287 288 286 285 285 285
304 305 304 303 304 304 303 303 303 303 306 305 306 306 306 305 303 303 301 301 300 298 297 296 296 296 295 295 294 294 292 292 292 291 288 287 288 288 289 287 284 284 285
302 303 303 303 304 303 302 302 302 306 304 304 305 305 305 303 303 302 301 299 298 296 296 296 295 295 295 294 293 293 290 285 286 286 286 286 287 289 289 288 285 284 285
303 303 302 302 303 303 302 301 304 304 303 304 304 304 304 303 303 301 300 297 297 296 295 295 294 294 294 293 292 292 292 290 287 286 286 285 285 287 289 288 287 287 286
301 303 302 300 301 302 302 302 303 303 302 302 302 301 301 300 300 300 299 298 296 295 295 294 293 293 293 293 292 292 290 291 290 289 287 285 285 285 287 286 287 286 286
302 303 303 303 300 302 302 302 302 302 301 301 300 300 300 300 299 299 299 298 298 298 296 295 294 293 293 294 293 292 290 289 291 289 287 285 285 286 287 286 285 285 285
302 302 302 303 301 302 301 301 301 301 301 300 299 300 300 300 299 299 297 297 297 297 296 295 295 294 294 293 293 293 292 289 289 289 288 287 286 285 286 285 285 284 283
Wind_Speed
1 6 19 28 30 30 40 36 34 30 32 29 23 32 33 35 32 31 27 26 26 24 22 20 18 17 15 14 13 10 8 10 8 8 10 12 18 17 15 13 11 8 7
2 4 6 15 26 34 32 33 39 37 36 34 31 23 21 29 32 27 26 28 30 27 23 21 21 19 18 15 12 9 8 8 9 8 6 3 8 6 0 2 4 5 2
2 1 8 13 17 24 30 32 36 35 33 32 27 28 33 31 26 27 27 26 27 28 25 24 21 19 16 14 14 13 12 12 10 10 5 1 3 3 3 1 2 3 2
2 3 4 7 14 19 21 27 29 31 34 33 33 33 26 24 29 33 31 26 24 25 23 24 24 18 16 12 15 11 10 10 11 12 11 13 7 3 3 1 4 3 5
6 7 7 13 12 10 12 15 17 23 23 26 30 32 33 34 32 33 27 21 19 15 14 16 15 13 13 12 10 9 7 8 9 7 5 6 8 10 6 3 2 1 3
7 7 13 13 17 14 14 14 14 17 18 21 22 25 25 22 22 16 16 13 11 9 8 5 3 4 4 4 4 6 6 6 6 6 6 6 4 2 6 3 5 4 5
6 7 7 10 15 15 17 15 15 17 16 17 18 20 21 19 19 17 17 19 16 10 10 4 1 3 2 2 3 4 4 4 5 7 7 7 9 9 5 7 7 5 6
4 5 7 12 15 18 17 17 17 17 14 13 12 15 18 18 16 17 17 21 19 13 9 8 4 5 6 5 5 5 6 6 6 7 8 8 8 9 10 9 6 3 4
5 4 1 5 12 16 17 14 15 15 12 11 10 8 9 10 13 15 17 21 17 16 16 13 12 11 11 10 7 6 7 6 7 6 7 8 8 9 10 11 11 7 2
6 5 5 8 8 8 10 11 11 12 10 9 8 9 8 8 10 16 21 22 20 18 17 14 12 14 11 8 5 7 7 7 7 8 8 7 8 8 9 9 9 9 8
6 6 7 10 7 3 3 5 9 12 11 9 9 9 9 10 14 17 18 18 18 17 15 13 12 11 8 7 6 6 6 8 8 8 8 7 6 5 8 8 8 8 7
4 4 5 7 7 3 1 5 9 12 13 14 14 14 14 15 18 20 21 20 20 16 13 12 9 6 5 4 3 3 4 7 8 7 7 8 5 5 7 7 8 7 7
6 3 2 2 2 2 3 8 11 12 13 14 14 16 18 19 20 19 18 16 12 12 10 8 7 5 3 4 5 6 6 5 5 5 6 5 7 7 8 7 8 7 7
8 7 7 6 8 6 4 4 6 9 14 17 17 17 18 19 19 19 19 14 11 9 9 7 4 3 2 4 5 6 5 2 2 1 3 4 5 8 9 8 8 8 7
8 7 6 6 10 11 10 7 7 9 11 14 17 18 17 16 17 16 14 15 13 11 9 7 5 3 3 4 4 5 6 5 5 6 6 5 6 8 8 8 8 8 8
7 6 7 8 11 12 14 12 13 13 14 16 19 18 17 18 19 18 17 15 13 12 9 7 5 7 5 4 3 3 4 6 7 6 5 5 4 4 3 4 5 7 8
7 8 7 8 13 16 16 17 18 17 17 20 20 20 20 21 22 21 18 15 14 12 10 8 8 7 5 5 4 3 5 6 7 7 6 5 5 4 4 3 5 4 6
7 8 9 15 20 20 21 21 18 17 20 23 23 22 23 24 22 20 18 17 15 12 10 9 8 8 7 6 5 6 6 7 8 7 7 7 6 5 5 3 2 1 2
9 15 22 23 24 24 25 23 22 19 19 27 28 28 27 26 24 23 21 19 16 13 11 10 11 11 9 8 8 8 7 7 7 7 7 6 6 5 5 4 3 3 5
19 21 26 24 24 28 21 19 22 20 23 30 33 31 29 29 29 27 25 21 17 14 12 13 12 11 10 8 7 10 8 9 8 8 8 7 5 5 5 5 6 5 5
21 26 24 23 27 24 21 22 22 22 28 25 28 28 29 30 30 27 26 22 18 15 12 11 11 9 9 9 9 11 9 9 10 10 9 8 7 6 6 5 6 6 6
16 23 22 24 27 21 17 23 22 25 22 21 25 28 30 29 27 26 23 21 19 17 12 10 10 11 11 12 11 11 9 8 9 9 8 8 8 7 7 6 5 5 7
21 21 19 25 26 22 17 20 24 17 17 20 24 28 28 28 28 28 26 24 21 18 14 12 12 13 13 13 12 12 12 10 10 8 7 8 9 9 9 8 6 7 8
25 22 21 19 23 22 16 17 16 11 16 21 23 25 27 27 25 25 26 25 23 19 15 14 15 14 14 15 15 15 15 15 14 10 8 9 9 11 11 9 9 11 11
24 21 22 21 20 17 12 12 8 9 14 17 20 22 24 23 22 22 23 22 19 19 18 17 15 14 14 17 16 17 18 18 17 14 11 11 12 12 13 12 12 13 12
23 22 26 20 19 12 10 9 8 10 14 15 18 20 22 21 20 19 16 16 15 14 14 12 12 12 12 9 9 12 15 16 15 16 17 16 15 16 16 16 15 15 16
Wind_Direction
109 161 179 193 194 185 192 197 203 202 211 221 215 210 218 233 234 236 233 225 224 220 223 223 218 219 219 221 224 239 252 270 282 301 295 303 303 301 294 305 307 298 285
73 108 152 176 191 200 204 205 206 205 213 215 222 224 221 236 239 238 241 236 226 221 220 220 219 212 212 220 230 229 264 270 284 283 306 336 323 295 182 32 41 41 28
283 9 159 195 211 203 207 209 215 219 232 229 231 229 231 233 239 238 230 232 229 222 222 221 218 212 216 226 221 222 237 257 264 272 259 308 242 329 279 51 98 124 180
224 245 284 216 199 217 215 221 223 230 232 234 229 230 237 241 242 250 241 231 226 225 225 230 221 214 216 230 249 237 235 255 267 273 267 251 256 253 306 73 78 124 162
235 243 234 258 257 235 220 230 230 232 231 233 240 238 227 237 245 244 231 219 221 222 225 224 207 219 224 222 237 249 252 261 267 258 259 252 260 255 239 267 231 163 196
250 247 251 266 266 259 246 232 232 242 234 236 236 241 250 249 255 234 212 202 192 171 156 145 215 248 272 232 235 254 255 257 262 266 258 247 233 264 236 240 272 237 230
220 261 268 254 259 261 254 247 238 240 236 233 237 241 246 249 243 231 211 185 175 169 142 112 22 248 265 263 233 240 265 261 268 273 270 263 257 252 247 255 260 241 232
195 237 267 266 261 260 259 247 242 246 247 245 244 249 250 245 238 233 206 193 180 172 157 174 169 287 287 270 284 290 287 286 282 281 276 265 256 251 256 256 256 266 192
105 119 326 285 283 268 261 260 241 232 224 223 227 239 241 236 228 218 202 185 172 173 193 187 194 229 259 273 279 296 293 294 284 278 273 271 264 264 269 267 255 241 244
41 31 15 7 344 302 267 255 243 230 217 214 217 216 215 211 201 187 179 177 180 186 187 186 191 205 204 240 270 289 291 288 289 282 270 267 273 275 282 266 250 243 246
20 8 354 4 13 336 261 231 219 207 207 215 224 222 206 190 183 185 188 185 178 177 181 184 195 203 211 225 244 248 292 295 286 282 283 272 274 280 276 268 263 254 238
356 337 333 339 356 19 217 202 190 194 198 198 195 190 186 182 179 175 173 175 179 181 182 182 192 220 240 229 269 287 268 284 289 295 278 266 268 271 265 277 271 261 252
330 293 300 321 341 288 206 194 195 199 200 195 189 182 180 180 182 183 183 177 186 186 192 198 205 211 252 322 301 301 291 281 292 272 254 250 274 277 272 267 271 269 249
305 310 319 318 318 323 302 251 216 201 196 195 195 195 194 193 189 187 187 191 187 188 183 172 202 232 246 290 301 292 286 269 220 280 272 270 265 268 267 269 263 255 248
319 320 305 305 303 306 306 292 269 241 222 210 206 204 200 197 196 192 186 175 181 191 203 193 207 236 256 270 279 303 283 258 254 261 257 260 260 261 261 259 261 248 229
305 317 319 319 316 311 303 294 272 250 232 225 220 210 200 197 197 188 181 182 187 192 195 188 203 225 229 228 254 293 281 250 237 244 250 252 254 249 272 270 259 247 229
302 309 308 305 306 305 304 294 284 267 237 229 225 214 206 201 197 190 190 189 186 187 191 195 208 218 225 228 243 253 267 241 236 234 231 231 231 222 206 195 182 194 213
312 311 307 308 308 307 300 299 297 277 244 232 227 219 211 204 197 197 195 188 190 191 193 205 217 222 226 231 237 221 235 236 229 230 229 231 225 221 222 214 216 88 132
301 295 302 304 306 303 305 304 295 277 248 233 224 218 212 203 199 195 193 192 192 193 202 211 213 215 216 218 207 228 210 212 217 223 228 230 227 215 230 228 201 159 112
310 307 307 302 300 301 307 297 285 269 244 235 226 217 210 206 202 196 193 195 196 197 201 206 206 212 218 219 209 239 233 217 222 227 227 222 221 193 203 236 212 192 159
297 313 313 288 288 294 297 289 280 259 254 243 229 216 208 208 206 197 196 194 194 193 197 207 205 216 235 228 219 233 242 222 221 218 219 220 209 206 201 241 229 219 198
302 309 298 289 289 285 282 285 277 274 257 239 223 213 207 204 203 199 194 194 191 190 194 201 211 230 234 233 225 216 228 215 220 222 227 222 212 208 203 216 220 214 208
295 300 285 286 286 280 270 279 286 277 240 220 213 209 203 202 200 195 191 189 194 196 196 205 218 230 233 228 225 216 213 226 232 229 232 225 218 210 218 217 225 197 212
299 295 294 275 276 279 269 273 282 255 218 205 200 199 195 195 196 197 196 195 197 200 205 213 225 229 232 231 227 218 211 219 226 235 230 225 221 218 223 217 211 217 227
292 293 293 284 275 276 270 269 258 212 201 198 183 181 185 187 188 196 200 204 214 218 217 225 229 224 227 233 231 225 220 218 218 223 219 212 214 215 220 223 223 226 227
302 296 291 279 271 260 264 245 209 188 179 173 170 174 179 183 187 193 200 212 225 230 236 244 239 233 239 237 230 228 225 221 212 213 220 222 223 227 229 231 236 238 239